sat.trackr.live / text

‹ back to catalog

STARLINK-3980

NORAD 52611 · 2022-052P

PAYLOAD ACTIVE UNKNOWN

§ Identity

Operator
Country
US
Launch date
2022-05-14
Launch site
AFETR
Launch vehicle
Mass (kg)
RCS (m²)

Purposes: comms

External: N2YO · Heavens-Above · Gunter

§ Orbital elements

Epoch: 2026-05-25T02:53:14.658720Z

Period
95.44 min
Inclination
53.2145°
Eccentricity
0.0001386
Mean motion
15.08835333 rev/d
Perigee alt
538.8 km
Apogee alt
540.7 km
Semi-major
6,917.9 km
B*
9.6701e-7
RAAN
301.0079°
Arg perigee
87.3930°
Mean anomaly
272.7221°
Rev number
22,232

§ Raw data

STARLINK-39801 52611U 22052P   26145.12030855 -.00000273  00000+0  96701-6 0  99992 52611  53.2145 301.0079 0001386  87.3930 272.7221 15.08835333222328

JSON: /api/v1/satellites/52611 · /tle

For live sub-satellite position, see the globe view (requires WebGL).

§ Visibility from observer

Set your observer location to see the next 7 days of passes ≥ 10°. The values pass through the URL so the page stays shareable.

No JS? Fill the form by hand. The geolocation button needs JavaScript.